Flag for U.S.A. Weather past 2 weeks in Kodiak, Alaska, U.S.A.

49 °F

Light rain. Fog.

Feels Like: 46 °F
Forecast: 49 / 50 °F
Wind: 6 mph from Northeast

Location: Kodiak Weather Reporting Station

Current Time: Oct 7, 2015 at 8:13:18 AM

Latest Report: Oct 7, 2015 at 6:53 AM

Visibility: 5 mi

Pressure: 29.58 "Hg

Humidity: 97%

Dew point: 48 °F

Location of KodiakLocation

Historic Weather in Kodiak — Graph


Kodiak temperature yesterday

Maximum temperature yesterday: 51 °F (at 11:53 AM)
Minimum temperature yesterday: 48 °F (at 1:53 AM)
Average temperature yesterday: 49 °F

Past Weeks' High & Low Weather Summary

High64 °F (Sep 27, 3:53 PM)100% (Sep 28, 12:53 AM)30.48 "Hg (Sep 28, 12:53 AM)
Low29 °F (Sep 24, 4:53 AM)36% (Sep 23, 2:53 PM)29.03 "Hg (Sep 29, 3:53 AM)
Average48 °F77%29.88 "Hg
* Reported Sep 22 6:53 AM — Oct 7 6:53 AM, Kodiak, Weather by CustomWeather, © 2015

Note: Actual official high and low records may vary slightly from our data, if they occured in-between our weather recording intervals... More about our weather records


Kodiak weather history for previous 24 hours

Time TempWeatherWind HumidityBarometerVisibility
6:53 AM
Wed, Oct 7
49 °FLight rain. Fog.6 mph97%29.58 "Hg5 mi
5:53 AM49 °FLight rain. Mostly cloudy.No wind100%29.59 "Hg10 mi
4:53 AM49 °FLight rain. Mostly cloudy.5 mph100%29.62 "Hg8 mi
3:53 AM50 °FLight rain. Mostly cloudy.9 mph96%29.63 "Hg8 mi
3:03 AM50 °FLight rain. Mostly cloudy.8 mph96%29.64 "Hg10 mi
2:02 AM50 °FLight rain. Mostly cloudy.7 mph96%29.64 "Hg8 mi
1:53 AM50 °FLight rain. Mostly cloudy.7 mph96%29.65 "Hg9 mi
12:53 AM50 °FLight rain. Mostly cloudy.7 mph96%29.65 "Hg10 mi
11:53 PM
Tue, Oct 6
50 °FLight rain. Mostly cloudy.5 mph96%29.65 "Hg10 mi
10:53 PM50 °FLow clouds.8 mph96%29.65 "Hg10 mi
9:53 PM50 °FLight rain. Overcast.8 mph96%29.66 "Hg7 mi
8:53 PM50 °FFog.8 mph96%29.66 "Hg2 mi
7:53 PM50 °FFog.5 mph96%29.67 "Hg3 mi
6:53 PM50 °FFog.3 mph96%29.67 "Hg1 mi
5:53 PM50 °FFog.5 mph96%29.68 "Hg2 mi
4:53 PM50 °FLight rain. Fog.5 mph100%29.69 "Hg2 mi
3:53 PM50 °FLow clouds.5 mph100%29.70 "Hg8 mi
2:53 PM51 °FMostly cloudy.7 mph96%29.71 "Hg10 mi
1:53 PM51 °FLight rain. Mostly cloudy.6 mph92%29.72 "Hg9 mi
12:53 PM51 °FMore clouds than sun.9 mph89%29.72 "Hg10 mi
11:53 AM51 °FMore clouds than sun.9 mph86%29.72 "Hg10 mi
10:53 AM50 °FMore clouds than sun.13 mph89%29.72 "Hg10 mi
9:53 AM49 °FFog.13 mph90%29.72 "Hg5 mi
8:53 AM48 °FFog.8 mph93%29.73 "Hg5 mi
Weather by CustomWeather, © 2015

See weather overviewHow to use our weather pages